GFSNW_prec_pwat_141.txt.gz
Precipitable_Water
0.59 0.59 0.60 0.62 0.61 0.67 0.57 0.44 0.22 0.48 0.60 0.37 0.37 0.30 0.32 0.36 0.32 0.36 0.33 0.32 0.29 0.26 0.26 0.24 0.24 0.24 0.27 0.33 0.31 0.22 0.26 0.23 0.17 0.19 0.30 0.33 0.31 0.23 0.19 0.12 0.12 0.12 0.11 0.07
0.60 0.58 0.58 0.61 0.61 0.57 0.56 0.44 0.32 0.48 0.49 0.21 0.24 0.31 0.32 0.35 0.33 0.32 0.31 0.28 0.30 0.29 0.24 0.21 0.25 0.27 0.35 0.33 0.32 0.28 0.29 0.23 0.18 0.19 0.25 0.30 0.23 0.23 0.23 0.20 0.18 0.12 0.08 0.06
0.58 0.59 0.57 0.57 0.60 0.58 0.47 0.42 0.34 0.39 0.36 0.31 0.23 0.20 0.20 0.20 0.32 0.30 0.32 0.30 0.31 0.27 0.23 0.26 0.22 0.24 0.29 0.32 0.30 0.32 0.29 0.21 0.16 0.12 0.15 0.20 0.14 0.14 0.16 0.17 0.11 0.10 0.08 0.08
0.59 0.58 0.58 0.56 0.55 0.58 0.52 0.38 0.26 0.39 0.32 0.31 0.24 0.25 0.24 0.20 0.19 0.27 0.27 0.23 0.24 0.23 0.19 0.20 0.20 0.25 0.27 0.29 0.30 0.28 0.24 0.14 0.17 0.16 0.16 0.16 0.12 0.11 0.12 0.10 0.10 0.07 0.08 0.09
0.60 0.59 0.57 0.57 0.56 0.56 0.46 0.32 0.30 0.32 0.29 0.33 0.33 0.34 0.26 0.20 0.20 0.22 0.21 0.20 0.22 0.23 0.18 0.18 0.16 0.20 0.19 0.18 0.25 0.21 0.23 0.12 0.15 0.10 0.13 0.13 0.11 0.12 0.12 0.12 0.14 0.14 0.14 0.13
0.62 0.59 0.58 0.57 0.56 0.55 0.44 0.44 0.41 0.36 0.28 0.26 0.27 0.30 0.33 0.34 0.34 0.28 0.27 0.23 0.21 0.20 0.23 0.27 0.27 0.27 0.27 0.27 0.23 0.20 0.20 0.16 0.13 0.08 0.15 0.13 0.07 0.08 0.11 0.13 0.15 0.16 0.14 0.18
0.67 0.63 0.59 0.57 0.56 0.55 0.49 0.44 0.42 0.31 0.24 0.25 0.25 0.28 0.31 0.32 0.33 0.34 0.38 0.39 0.34 0.37 0.39 0.34 0.29 0.27 0.24 0.26 0.27 0.29 0.21 0.20 0.18 0.12 0.13 0.06 0.11 0.19 0.20 0.18 0.19 0.22 0.23 0.26
0.72 0.68 0.65 0.60 0.57 0.57 0.48 0.48 0.42 0.36 0.26 0.28 0.26 0.26 0.29 0.36 0.39 0.35 0.35 0.38 0.45 0.50 0.44 0.36 0.33 0.33 0.30 0.29 0.32 0.32 0.35 0.30 0.19 0.13 0.14 0.13 0.13 0.17 0.19 0.21 0.24 0.31 0.31 0.34
0.76 0.73 0.69 0.66 0.60 0.57 0.54 0.49 0.51 0.41 0.32 0.28 0.31 0.27 0.29 0.27 0.31 0.35 0.38 0.48 0.52 0.47 0.37 0.30 0.24 0.24 0.28 0.29 0.34 0.42 0.41 0.41 0.31 0.28 0.21 0.17 0.26 0.33 0.37 0.36 0.26 0.38 0.40 0.40
0.79 0.77 0.74 0.70 0.65 0.61 0.58 0.52 0.55 0.45 0.31 0.37 0.36 0.28 0.29 0.33 0.32 0.32 0.39 0.42 0.41 0.46 0.33 0.28 0.26 0.25 0.29 0.24 0.25 0.29 0.33 0.35 0.32 0.31 0.28 0.31 0.38 0.40 0.44 0.30 0.32 0.44 0.44 0.43
0.84 0.81 0.79 0.76 0.71 0.66 0.60 0.55 0.60 0.46 0.37 0.39 0.42 0.40 0.35 0.36 0.36 0.33 0.42 0.41 0.43 0.40 0.32 0.30 0.29 0.28 0.30 0.28 0.30 0.29 0.27 0.26 0.27 0.30 0.27 0.23 0.41 0.40 0.33 0.38 0.44 0.44 0.44 0.44
0.86 0.86 0.84 0.81 0.78 0.72 0.68 0.53 0.63 0.61 0.43 0.41 0.53 0.51 0.51 0.49 0.48 0.43 0.47 0.45 0.48 0.47 0.39 0.40 0.38 0.32 0.32 0.30 0.25 0.36 0.27 0.32 0.30 0.31 0.29 0.39 0.42 0.39 0.43 0.44 0.42 0.43 0.44 0.47
0.90 0.89 0.89 0.86 0.83 0.78 0.72 0.62 0.62 0.57 0.45 0.41 0.42 0.39 0.49 0.55 0.54 0.58 0.43 0.48 0.54 0.53 0.57 0.48 0.43 0.36 0.39 0.30 0.30 0.33 0.37 0.41 0.36 0.37 0.40 0.43 0.46 0.49 0.49 0.49 0.47 0.48 0.48 0.48
0.92 0.94 0.94 0.91 0.88 0.85 0.78 0.66 0.67 0.58 0.50 0.35 0.36 0.51 0.47 0.56 0.58 0.58 0.58 0.57 0.58 0.59 0.57 0.48 0.44 0.39 0.45 0.38 0.40 0.38 0.40 0.42 0.39 0.38 0.41 0.43 0.45 0.45 0.47 0.47 0.47 0.46 0.47 0.46
0.90 0.94 0.94 0.95 0.92 0.90 0.84 0.78 0.73 0.69 0.51 0.39 0.41 0.51 0.52 0.54 0.52 0.53 0.59 0.56 0.54 0.51 0.48 0.47 0.44 0.49 0.46 0.46 0.44 0.38 0.43 0.41 0.37 0.34 0.42 0.41 0.42 0.46 0.47 0.46 0.45 0.45 0.43 0.39
0.87 0.95 0.96 0.94 0.94 0.92 0.81 0.63 0.73 0.72 0.67 0.47 0.33 0.49 0.46 0.50 0.53 0.52 0.51 0.53 0.55 0.54 0.50 0.49 0.52 0.55 0.48 0.39 0.37 0.42 0.45 0.46 0.46 0.42 0.46 0.46 0.47 0.47 0.47 0.45 0.45 0.43 0.38 0.36
0.88 0.95 0.97 0.97 0.95 0.90 0.72 0.63 0.71 0.75 0.70 0.51 0.40 0.38 0.48 0.50 0.49 0.49 0.50 0.54 0.54 0.54 0.52 0.48 0.49 0.49 0.50 0.43 0.36 0.42 0.46 0.48 0.48 0.49 0.48 0.44 0.46 0.44 0.47 0.46 0.42 0.39 0.34 0.31
0.91 0.95 0.96 0.95 0.92 0.87 0.74 0.81 0.81 0.79 0.66 0.60 0.43 0.39 0.41 0.51 0.42 0.41 0.52 0.49 0.54 0.54 0.52 0.53 0.49 0.51 0.50 0.39 0.41 0.44 0.46 0.47 0.46 0.46 0.48 0.46 0.47 0.45 0.42 0.40 0.35 0.29 0.26 0.25
0.92 0.96 0.93 0.85 0.77 0.67 0.71 0.84 0.83 0.81 0.66 0.47 0.43 0.36 0.34 0.53 0.49 0.50 0.50 0.52 0.44 0.56 0.49 0.49 0.51 0.45 0.38 0.40 0.42 0.42 0.44 0.43 0.43 0.44 0.43 0.43 0.41 0.40 0.37 0.32 0.27 0.25 0.24 0.23
0.90 0.83 0.68 0.55 0.66 0.81 0.79 0.70 0.61 0.61 0.59 0.55 0.42 0.46 0.40 0.48 0.47 0.45 0.46 0.50 0.45 0.40 0.44 0.50 0.42 0.39 0.44 0.44 0.44 0.43 0.44 0.45 0.43 0.39 0.37 0.37 0.36 0.34 0.29 0.26 0.25 0.24 0.23 0.23
0.74 0.59 0.56 0.67 0.77 0.67 0.60 0.49 0.46 0.47 0.42 0.47 0.46 0.46 0.42 0.53 0.42 0.43 0.51 0.44 0.44 0.34 0.38 0.38 0.35 0.34 0.39 0.42 0.39 0.41 0.43 0.44 0.44 0.43 0.39 0.35 0.32 0.28 0.25 0.24 0.25 0.25 0.25 0.24
0.69 0.67 0.69 0.65 0.56 0.49 0.43 0.38 0.41 0.38 0.35 0.41 0.38 0.42 0.47 0.49 0.55 0.47 0.46 0.39 0.40 0.31 0.42 0.34 0.29 0.34 0.40 0.39 0.39 0.41 0.43 0.42 0.40 0.38 0.34 0.30 0.27 0.27 0.27 0.26 0.26 0.26 0.26 0.26
0.68 0.56 0.49 0.47 0.43 0.33 0.30 0.26 0.29 0.30 0.36 0.41 0.41 0.39 0.45 0.47 0.49 0.44 0.41 0.34 0.32 0.41 0.32 0.28 0.31 0.37 0.37 0.37 0.40 0.39 0.39 0.38 0.33 0.29 0.29 0.29 0.29 0.29 0.30 0.30 0.30 0.27 0.24 0.25
0.46 0.40 0.34 0.37 0.33 0.33 0.31 0.30 0.31 0.37 0.38 0.39 0.41 0.40 0.39 0.43 0.39 0.41 0.33 0.36 0.37 0.28 0.25 0.26 0.33 0.36 0.36 0.39 0.41 0.38 0.36 0.33 0.30 0.31 0.32 0.32 0.32 0.32 0.33 0.32 0.28 0.25 0.21 0.19
0.45 0.44 0.34 0.35 0.38 0.39 0.39 0.40 0.39 0.42 0.43 0.41 0.38 0.39 0.40 0.36 0.35 0.36 0.35 0.30 0.26 0.26 0.25 0.30 0.32 0.34 0.32 0.30 0.31 0.32 0.32 0.32 0.30 0.30 0.29 0.28 0.27 0.27 0.26 0.23 0.21 0.18 0.16 0.17
0.46 0.42 0.37 0.39 0.36 0.35 0.37 0.39 0.38 0.44 0.43 0.43 0.41 0.35 0.32 0.31 0.32 0.29 0.28 0.27 0.24 0.28 0.32 0.34 0.34 0.33 0.32 0.30 0.30 0.29 0.28 0.27 0.25 0.23 0.22 0.22 0.23 0.21 0.18 0.17 0.17 0.18 0.18 0.18
0.39 0.36 0.42 0.40 0.38 0.36 0.37 0.40 0.40 0.48 0.41 0.35 0.35 0.29 0.27 0.34 0.28 0.26 0.31 0.28 0.32 0.34 0.36 0.37 0.34 0.32 0.30 0.30 0.28 0.26 0.24 0.22 0.21 0.20 0.19 0.18 0.17 0.18 0.17 0.16 0.16 0.19 0.19 0.21

GFSNW_prec_pwat_144.txt.gz
Precipitable_Water
0.59 0.58 0.59 0.61 0.56 0.58 0.64 0.46 0.19 0.50 0.61 0.33 0.33 0.26 0.28 0.34 0.33 0.36 0.34 0.35 0.32 0.28 0.28 0.25 0.24 0.23 0.24 0.32 0.28 0.18 0.24 0.20 0.13 0.15 0.25 0.28 0.23 0.17 0.18 0.13 0.13 0.16 0.14 0.10
0.57 0.59 0.57 0.58 0.60 0.54 0.46 0.40 0.40 0.53 0.48 0.20 0.24 0.31 0.31 0.33 0.30 0.31 0.30 0.28 0.31 0.31 0.27 0.22 0.26 0.26 0.34 0.33 0.29 0.24 0.24 0.18 0.13 0.14 0.20 0.26 0.22 0.25 0.24 0.22 0.21 0.14 0.10 0.09
0.59 0.57 0.57 0.56 0.57 0.56 0.46 0.37 0.25 0.40 0.42 0.32 0.23 0.21 0.23 0.24 0.33 0.30 0.32 0.30 0.31 0.26 0.23 0.27 0.25 0.26 0.31 0.34 0.33 0.35 0.32 0.23 0.20 0.15 0.18 0.23 0.19 0.21 0.24 0.22 0.14 0.12 0.12 0.11
0.61 0.58 0.56 0.56 0.56 0.58 0.52 0.34 0.24 0.36 0.25 0.31 0.32 0.27 0.21 0.18 0.17 0.27 0.27 0.25 0.26 0.24 0.20 0.21 0.21 0.24 0.26 0.30 0.31 0.29 0.25 0.16 0.19 0.20 0.20 0.20 0.19 0.16 0.15 0.14 0.14 0.09 0.08 0.09
0.65 0.60 0.57 0.55 0.56 0.55 0.45 0.29 0.29 0.31 0.28 0.32 0.28 0.30 0.32 0.24 0.21 0.22 0.20 0.19 0.22 0.22 0.16 0.16 0.16 0.20 0.20 0.18 0.25 0.22 0.24 0.13 0.17 0.12 0.14 0.14 0.11 0.12 0.11 0.12 0.13 0.12 0.13 0.11
0.68 0.65 0.61 0.56 0.55 0.54 0.41 0.43 0.43 0.36 0.27 0.25 0.26 0.28 0.30 0.29 0.33 0.34 0.32 0.26 0.22 0.20 0.23 0.27 0.27 0.27 0.25 0.24 0.22 0.19 0.19 0.14 0.12 0.07 0.14 0.12 0.07 0.08 0.10 0.11 0.13 0.12 0.10 0.12
0.71 0.68 0.65 0.61 0.57 0.54 0.47 0.42 0.40 0.30 0.25 0.26 0.24 0.26 0.29 0.31 0.33 0.30 0.35 0.36 0.34 0.39 0.45 0.41 0.37 0.32 0.30 0.29 0.26 0.27 0.19 0.18 0.16 0.10 0.12 0.05 0.08 0.16 0.16 0.14 0.16 0.19 0.19 0.22
0.74 0.72 0.68 0.65 0.61 0.59 0.48 0.47 0.40 0.33 0.24 0.29 0.28 0.28 0.27 0.32 0.35 0.34 0.34 0.37 0.42 0.47 0.41 0.32 0.30 0.30 0.32 0.34 0.39 0.40 0.38 0.29 0.20 0.17 0.17 0.16 0.17 0.21 0.18 0.16 0.15 0.26 0.27 0.31
0.78 0.77 0.73 0.69 0.65 0.63 0.55 0.51 0.51 0.40 0.28 0.25 0.31 0.28 0.30 0.27 0.29 0.32 0.36 0.46 0.51 0.46 0.36 0.29 0.23 0.22 0.26 0.25 0.30 0.40 0.42 0.42 0.32 0.28 0.22 0.19 0.27 0.34 0.38 0.36 0.26 0.37 0.39 0.39
0.82 0.79 0.79 0.75 0.70 0.66 0.59 0.53 0.57 0.46 0.31 0.37 0.34 0.27 0.27 0.33 0.31 0.29 0.35 0.40 0.42 0.47 0.35 0.29 0.26 0.25 0.29 0.24 0.25 0.28 0.31 0.32 0.28 0.28 0.25 0.27 0.34 0.37 0.40 0.27 0.29 0.42 0.44 0.44
0.85 0.81 0.82 0.82 0.77 0.71 0.64 0.56 0.60 0.47 0.37 0.39 0.43 0.40 0.34 0.34 0.34 0.27 0.34 0.35 0.39 0.38 0.34 0.33 0.33 0.32 0.32 0.29 0.30 0.29 0.28 0.27 0.27 0.30 0.26 0.22 0.38 0.36 0.30 0.35 0.40 0.41 0.41 0.42
0.87 0.87 0.84 0.86 0.85 0.78 0.74 0.57 0.65 0.62 0.44 0.41 0.52 0.50 0.50 0.47 0.45 0.39 0.41 0.36 0.39 0.40 0.35 0.36 0.39 0.35 0.37 0.34 0.28 0.38 0.29 0.31 0.28 0.30 0.29 0.38 0.43 0.41 0.44 0.46 0.44 0.45 0.45 0.46
0.90 0.89 0.88 0.91 0.89 0.84 0.78 0.66 0.66 0.61 0.47 0.43 0.43 0.40 0.49 0.53 0.52 0.54 0.36 0.41 0.45 0.46 0.51 0.46 0.43 0.36 0.40 0.32 0.33 0.34 0.37 0.41 0.35 0.36 0.37 0.41 0.45 0.48 0.49 0.50 0.49 0.49 0.49 0.48
0.89 0.90 0.89 0.90 0.88 0.89 0.84 0.73 0.73 0.64 0.53 0.38 0.39 0.53 0.46 0.55 0.56 0.55 0.53 0.49 0.54 0.52 0.51 0.44 0.40 0.36 0.44 0.38 0.40 0.39 0.41 0.41 0.38 0.37 0.40 0.43 0.46 0.48 0.49 0.49 0.49 0.48 0.47 0.47
0.91 0.87 0.91 0.91 0.90 0.89 0.87 0.82 0.79 0.76 0.56 0.42 0.44 0.53 0.55 0.55 0.53 0.51 0.53 0.50 0.48 0.47 0.44 0.41 0.38 0.45 0.45 0.46 0.45 0.41 0.44 0.41 0.37 0.34 0.42 0.43 0.44 0.49 0.50 0.48 0.48 0.48 0.46 0.44
0.92 0.87 0.88 0.92 0.91 0.90 0.80 0.63 0.75 0.77 0.73 0.53 0.39 0.54 0.49 0.52 0.51 0.50 0.50 0.53 0.51 0.49 0.44 0.42 0.45 0.51 0.47 0.39 0.36 0.44 0.47 0.50 0.48 0.43 0.48 0.48 0.49 0.50 0.50 0.48 0.48 0.47 0.44 0.42
0.92 0.90 0.88 0.93 0.92 0.84 0.67 0.61 0.70 0.76 0.73 0.54 0.44 0.43 0.54 0.55 0.52 0.51 0.49 0.52 0.49 0.49 0.46 0.42 0.43 0.45 0.48 0.42 0.36 0.45 0.49 0.52 0.52 0.52 0.50 0.45 0.48 0.46 0.49 0.48 0.47 0.45 0.42 0.40
0.94 0.92 0.90 0.97 0.93 0.85 0.71 0.79 0.80 0.76 0.65 0.60 0.43 0.41 0.44 0.55 0.46 0.44 0.54 0.47 0.49 0.48 0.45 0.47 0.43 0.46 0.46 0.38 0.46 0.50 0.53 0.54 0.52 0.50 0.51 0.50 0.50 0.48 0.47 0.46 0.44 0.40 0.36 0.34
0.95 0.92 0.95 0.87 0.78 0.67 0.71 0.83 0.79 0.78 0.63 0.46 0.42 0.35 0.33 0.52 0.48 0.49 0.49 0.51 0.41 0.51 0.44 0.45 0.47 0.42 0.37 0.43 0.47 0.49 0.51 0.49 0.49 0.50 0.48 0.48 0.46 0.45 0.43 0.41 0.38 0.35 0.31 0.27
0.94 0.86 0.70 0.55 0.69 0.84 0.81 0.71 0.60 0.59 0.57 0.56 0.43 0.47 0.39 0.45 0.43 0.42 0.43 0.47 0.41 0.36 0.41 0.47 0.41 0.38 0.47 0.49 0.50 0.51 0.50 0.48 0.48 0.43 0.41 0.42 0.42 0.41 0.39 0.37 0.34 0.30 0.27 0.26
0.78 0.62 0.56 0.66 0.78 0.71 0.61 0.49 0.45 0.45 0.39 0.45 0.44 0.45 0.41 0.50 0.38 0.38 0.45 0.40 0.42 0.33 0.35 0.36 0.33 0.32 0.40 0.45 0.46 0.48 0.47 0.46 0.46 0.47 0.45 0.43 0.39 0.36 0.33 0.32 0.32 0.30 0.29 0.28
0.75 0.67 0.70 0.67 0.58 0.52 0.44 0.37 0.40 0.37 0.33 0.39 0.39 0.42 0.45 0.47 0.52 0.43 0.45 0.38 0.39 0.29 0.40 0.33 0.27 0.33 0.41 0.42 0.43 0.45 0.47 0.46 0.44 0.42 0.38 0.35 0.32 0.32 0.31 0.32 0.32 0.32 0.33 0.32
0.66 0.56 0.50 0.49 0.46 0.36 0.33 0.26 0.25 0.27 0.34 0.38 0.39 0.37 0.42 0.45 0.48 0.42 0.40 0.33 0.31 0.39 0.30 0.26 0.29 0.36 0.39 0.40 0.40 0.40 0.42 0.41 0.39 0.36 0.34 0.33 0.33 0.34 0.33 0.33 0.34 0.33 0.30 0.27
0.48 0.42 0.35 0.37 0.34 0.34 0.33 0.30 0.29 0.32 0.35 0.39 0.39 0.37 0.36 0.40 0.37 0.38 0.31 0.34 0.35 0.26 0.22 0.23 0.31 0.33 0.35 0.40 0.40 0.38 0.37 0.34 0.33 0.33 0.33 0.32 0.32 0.32 0.32 0.30 0.29 0.28 0.24 0.21
0.46 0.47 0.35 0.35 0.40 0.39 0.38 0.35 0.32 0.37 0.43 0.41 0.39 0.38 0.38 0.35 0.33 0.35 0.33 0.28 0.24 0.25 0.23 0.28 0.31 0.33 0.33 0.32 0.33 0.32 0.31 0.30 0.30 0.29 0.29 0.29 0.28 0.25 0.23 0.23 0.23 0.21 0.19 0.18
0.48 0.43 0.38 0.40 0.37 0.34 0.31 0.30 0.34 0.44 0.44 0.43 0.39 0.33 0.31 0.30 0.32 0.28 0.26 0.25 0.22 0.25 0.31 0.32 0.33 0.33 0.33 0.32 0.32 0.31 0.31 0.29 0.26 0.24 0.23 0.22 0.22 0.20 0.19 0.20 0.19 0.18 0.18 0.18
0.40 0.37 0.44 0.41 0.37 0.31 0.31 0.39 0.42 0.48 0.41 0.34 0.35 0.29 0.28 0.34 0.28 0.26 0.30 0.26 0.30 0.34 0.36 0.37 0.36 0.34 0.32 0.32 0.31 0.28 0.25 0.24 0.24 0.23 0.22 0.20 0.20 0.21 0.19 0.16 0.16 0.19 0.19 0.19

GFSNW_prec_pwat_150.txt.gz
Precipitable_Water
0.59 0.55 0.54 0.55 0.57 0.54 0.48 0.44 0.28 0.56 0.56 0.28 0.31 0.26 0.31 0.36 0.33 0.38 0.34 0.32 0.30 0.27 0.27 0.25 0.25 0.24 0.27 0.35 0.32 0.22 0.27 0.20 0.15 0.18 0.27 0.29 0.25 0.22 0.20 0.13 0.12 0.14 0.12 0.09
0.64 0.57 0.54 0.53 0.55 0.59 0.46 0.32 0.33 0.54 0.46 0.22 0.24 0.30 0.30 0.32 0.30 0.32 0.31 0.30 0.30 0.30 0.26 0.21 0.26 0.27 0.34 0.34 0.30 0.24 0.24 0.18 0.13 0.14 0.20 0.25 0.19 0.20 0.19 0.17 0.15 0.11 0.09 0.08
0.66 0.62 0.57 0.53 0.54 0.57 0.49 0.33 0.21 0.31 0.35 0.34 0.29 0.25 0.25 0.25 0.33 0.28 0.30 0.30 0.32 0.28 0.25 0.27 0.23 0.23 0.28 0.31 0.29 0.31 0.25 0.17 0.12 0.09 0.12 0.17 0.15 0.18 0.20 0.16 0.12 0.11 0.10 0.11
0.65 0.66 0.62 0.56 0.54 0.56 0.46 0.31 0.26 0.33 0.23 0.27 0.28 0.25 0.25 0.20 0.18 0.28 0.29 0.26 0.25 0.23 0.19 0.22 0.22 0.26 0.27 0.29 0.30 0.28 0.23 0.15 0.17 0.17 0.18 0.19 0.18 0.18 0.19 0.18 0.17 0.14 0.15 0.15
0.75 0.68 0.65 0.62 0.57 0.53 0.42 0.28 0.29 0.31 0.28 0.30 0.27 0.29 0.26 0.22 0.24 0.26 0.20 0.19 0.23 0.23 0.20 0.19 0.16 0.21 0.22 0.21 0.28 0.25 0.26 0.16 0.19 0.15 0.18 0.19 0.16 0.18 0.19 0.19 0.19 0.18 0.15 0.13
0.87 0.82 0.71 0.65 0.61 0.54 0.39 0.44 0.43 0.34 0.28 0.26 0.25 0.26 0.29 0.28 0.31 0.29 0.29 0.29 0.28 0.24 0.24 0.26 0.26 0.26 0.24 0.22 0.19 0.17 0.16 0.13 0.11 0.08 0.12 0.10 0.06 0.07 0.09 0.10 0.12 0.12 0.08 0.09
0.92 0.86 0.84 0.75 0.66 0.60 0.48 0.44 0.41 0.31 0.23 0.26 0.24 0.27 0.29 0.28 0.31 0.29 0.35 0.35 0.30 0.34 0.42 0.41 0.40 0.38 0.37 0.36 0.32 0.31 0.22 0.19 0.16 0.10 0.11 0.06 0.10 0.17 0.20 0.20 0.20 0.21 0.20 0.19
0.93 0.90 0.87 0.84 0.79 0.69 0.55 0.51 0.43 0.35 0.25 0.29 0.28 0.29 0.28 0.31 0.33 0.32 0.33 0.37 0.41 0.45 0.39 0.31 0.28 0.27 0.27 0.30 0.36 0.37 0.38 0.31 0.25 0.21 0.20 0.22 0.25 0.27 0.26 0.25 0.26 0.30 0.30 0.31
0.93 0.90 0.87 0.88 0.86 0.79 0.65 0.57 0.56 0.44 0.31 0.27 0.33 0.31 0.32 0.27 0.27 0.28 0.33 0.42 0.45 0.41 0.33 0.29 0.23 0.22 0.25 0.26 0.31 0.41 0.40 0.38 0.28 0.25 0.20 0.18 0.24 0.31 0.35 0.33 0.23 0.34 0.36 0.36
0.98 0.92 0.87 0.86 0.88 0.83 0.73 0.63 0.64 0.50 0.36 0.39 0.36 0.30 0.30 0.35 0.32 0.28 0.32 0.35 0.35 0.38 0.28 0.24 0.23 0.22 0.28 0.24 0.25 0.27 0.31 0.33 0.30 0.30 0.26 0.28 0.33 0.35 0.37 0.24 0.26 0.38 0.40 0.40
1.02 0.98 0.94 0.87 0.87 0.86 0.76 0.67 0.70 0.55 0.42 0.42 0.46 0.42 0.35 0.36 0.35 0.28 0.35 0.32 0.33 0.32 0.25 0.24 0.23 0.23 0.25 0.25 0.28 0.28 0.28 0.28 0.29 0.32 0.28 0.24 0.40 0.38 0.31 0.35 0.41 0.42 0.43 0.45
1.04 1.02 0.99 0.96 0.88 0.87 0.82 0.64 0.74 0.70 0.51 0.46 0.56 0.53 0.52 0.47 0.44 0.38 0.39 0.33 0.34 0.35 0.29 0.29 0.28 0.25 0.28 0.25 0.21 0.31 0.26 0.30 0.29 0.32 0.29 0.38 0.41 0.40 0.43 0.44 0.42 0.44 0.45 0.47
1.02 1.02 0.99 0.98 0.95 0.91 0.86 0.72 0.70 0.65 0.54 0.51 0.51 0.48 0.55 0.58 0.54 0.55 0.36 0.39 0.43 0.40 0.42 0.35 0.33 0.27 0.31 0.24 0.25 0.28 0.32 0.36 0.31 0.31 0.33 0.37 0.41 0.45 0.46 0.47 0.46 0.48 0.49 0.49
1.07 1.01 0.97 0.96 0.96 0.94 0.89 0.77 0.76 0.67 0.58 0.45 0.47 0.60 0.53 0.60 0.59 0.56 0.54 0.49 0.52 0.49 0.46 0.38 0.35 0.30 0.37 0.30 0.31 0.29 0.32 0.34 0.31 0.31 0.34 0.39 0.41 0.44 0.46 0.48 0.51 0.50 0.52 0.52
1.08 1.03 0.99 0.94 0.96 0.96 0.89 0.84 0.83 0.78 0.59 0.45 0.47 0.57 0.58 0.60 0.57 0.54 0.56 0.52 0.49 0.46 0.41 0.38 0.35 0.39 0.37 0.38 0.37 0.32 0.36 0.33 0.30 0.29 0.38 0.39 0.41 0.45 0.48 0.46 0.48 0.52 0.52 0.51
1.04 1.07 1.03 0.97 0.96 0.93 0.82 0.63 0.74 0.82 0.75 0.54 0.40 0.54 0.53 0.57 0.57 0.55 0.54 0.54 0.51 0.49 0.44 0.42 0.44 0.48 0.42 0.34 0.31 0.39 0.42 0.43 0.43 0.38 0.43 0.43 0.45 0.48 0.49 0.48 0.50 0.52 0.53 0.53
0.93 1.02 1.05 0.99 0.94 0.86 0.67 0.59 0.71 0.80 0.76 0.55 0.42 0.40 0.51 0.55 0.55 0.53 0.52 0.53 0.49 0.48 0.45 0.42 0.43 0.44 0.46 0.40 0.32 0.40 0.43 0.44 0.45 0.47 0.47 0.43 0.47 0.45 0.50 0.51 0.51 0.53 0.51 0.50
0.78 0.97 1.02 0.99 0.97 0.88 0.74 0.81 0.82 0.79 0.64 0.56 0.39 0.37 0.39 0.52 0.43 0.40 0.50 0.44 0.45 0.44 0.42 0.44 0.41 0.44 0.43 0.33 0.38 0.41 0.44 0.45 0.45 0.47 0.48 0.47 0.49 0.49 0.50 0.52 0.51 0.49 0.47 0.45
0.59 0.85 0.97 0.94 0.81 0.66 0.74 0.91 0.86 0.81 0.62 0.45 0.42 0.34 0.31 0.48 0.43 0.45 0.45 0.46 0.36 0.45 0.39 0.40 0.42 0.36 0.31 0.34 0.37 0.39 0.42 0.42 0.42 0.45 0.47 0.47 0.46 0.47 0.47 0.46 0.45 0.43 0.42 0.41
0.52 0.70 0.69 0.59 0.65 0.83 0.85 0.73 0.63 0.61 0.60 0.55 0.41 0.43 0.34 0.43 0.41 0.39 0.39 0.42 0.37 0.31 0.36 0.42 0.34 0.30 0.37 0.41 0.42 0.41 0.41 0.41 0.41 0.38 0.37 0.40 0.39 0.42 0.42 0.42 0.41 0.39 0.38 0.38
0.40 0.45 0.50 0.69 0.82 0.74 0.65 0.50 0.48 0.50 0.41 0.45 0.45 0.43 0.39 0.49 0.38 0.38 0.42 0.36 0.36 0.27 0.30 0.32 0.27 0.24 0.31 0.38 0.37 0.39 0.39 0.39 0.41 0.43 0.43 0.43 0.42 0.42 0.40 0.38 0.36 0.35 0.36 0.37
0.41 0.42 0.57 0.67 0.59 0.54 0.46 0.41 0.45 0.40 0.35 0.43 0.38 0.40 0.46 0.46 0.50 0.41 0.42 0.35 0.36 0.26 0.35 0.28 0.20 0.25 0.32 0.34 0.35 0.35 0.37 0.39 0.41 0.41 0.40 0.40 0.39 0.38 0.35 0.32 0.33 0.34 0.34 0.33
0.48 0.39 0.36 0.46 0.48 0.37 0.35 0.28 0.32 0.34 0.39 0.40 0.41 0.39 0.46 0.48 0.48 0.43 0.39 0.32 0.29 0.35 0.25 0.20 0.21 0.28 0.32 0.33 0.34 0.32 0.35 0.36 0.35 0.34 0.33 0.32 0.31 0.30 0.29 0.30 0.32 0.32 0.30 0.29
0.34 0.29 0.22 0.28 0.29 0.31 0.29 0.30 0.34 0.41 0.41 0.42 0.43 0.42 0.42 0.45 0.41 0.41 0.32 0.34 0.32 0.23 0.18 0.17 0.25 0.29 0.31 0.34 0.34 0.32 0.29 0.29 0.29 0.29 0.29 0.30 0.30 0.29 0.29 0.28 0.27 0.26 0.25 0.24
0.29 0.31 0.22 0.21 0.26 0.29 0.35 0.39 0.40 0.43 0.46 0.42 0.41 0.42 0.42 0.40 0.38 0.38 0.33 0.27 0.22 0.21 0.18 0.25 0.29 0.31 0.32 0.31 0.30 0.28 0.27 0.27 0.26 0.26 0.26 0.26 0.26 0.25 0.24 0.25 0.24 0.23 0.22 0.21
0.32 0.30 0.24 0.25 0.25 0.26 0.29 0.35 0.38 0.44 0.43 0.42 0.43 0.38 0.35 0.34 0.34 0.30 0.26 0.24 0.18 0.21 0.29 0.31 0.31 0.30 0.29 0.28 0.29 0.28 0.28 0.28 0.28 0.28 0.28 0.27 0.26 0.24 0.24 0.24 0.21 0.19 0.18 0.17
0.29 0.24 0.28 0.25 0.25 0.25 0.28 0.33 0.37 0.43 0.38 0.34 0.38 0.31 0.30 0.34 0.28 0.26 0.30 0.24 0.27 0.32 0.33 0.34 0.33 0.31 0.31 0.31 0.31 0.31 0.30 0.29 0.27 0.26 0.25 0.24 0.23 0.21 0.18 0.15 0.15 0.17 0.17 0.17

GFSNW_prec_pwat_153.txt.gz
Precipitable_Water
0.65 0.62 0.56 0.51 0.54 0.57 0.49 0.40 0.27 0.54 0.52 0.27 0.30 0.26 0.30 0.35 0.34 0.40 0.35 0.33 0.27 0.25 0.26 0.24 0.24 0.22 0.24 0.32 0.31 0.21 0.24 0.18 0.15 0.17 0.26 0.28 0.25 0.20 0.19 0.13 0.12 0.15 0.13 0.11
0.65 0.65 0.60 0.53 0.52 0.55 0.44 0.29 0.32 0.49 0.43 0.23 0.24 0.30 0.29 0.33 0.31 0.31 0.31 0.30 0.32 0.33 0.28 0.23 0.27 0.27 0.34 0.36 0.30 0.24 0.24 0.17 0.13 0.14 0.19 0.25 0.20 0.21 0.20 0.18 0.17 0.12 0.10 0.09
0.64 0.65 0.63 0.58 0.53 0.53 0.45 0.28 0.21 0.31 0.35 0.35 0.28 0.26 0.25 0.25 0.32 0.30 0.32 0.31 0.32 0.27 0.24 0.27 0.23 0.24 0.30 0.33 0.30 0.31 0.26 0.18 0.13 0.10 0.13 0.18 0.16 0.18 0.19 0.16 0.11 0.10 0.10 0.10
0.81 0.73 0.66 0.62 0.57 0.53 0.42 0.31 0.24 0.31 0.22 0.27 0.29 0.25 0.23 0.21 0.20 0.28 0.30 0.25 0.25 0.24 0.20 0.21 0.21 0.25 0.25 0.28 0.29 0.26 0.21 0.14 0.16 0.16 0.17 0.17 0.16 0.16 0.17 0.16 0.16 0.12 0.13 0.14
0.89 0.84 0.81 0.73 0.59 0.54 0.39 0.28 0.28 0.31 0.27 0.29 0.26 0.29 0.28 0.23 0.23 0.25 0.22 0.22 0.25 0.24 0.19 0.19 0.17 0.22 0.23 0.20 0.25 0.23 0.24 0.16 0.17 0.14 0.17 0.16 0.14 0.15 0.16 0.17 0.18 0.16 0.15 0.13
0.93 0.89 0.86 0.80 0.71 0.54 0.40 0.43 0.42 0.33 0.27 0.25 0.23 0.25 0.27 0.28 0.32 0.32 0.31 0.29 0.27 0.24 0.27 0.29 0.28 0.27 0.24 0.22 0.17 0.16 0.15 0.12 0.10 0.07 0.12 0.11 0.08 0.08 0.10 0.12 0.14 0.15 0.12 0.15
0.95 0.93 0.89 0.85 0.79 0.68 0.50 0.46 0.41 0.30 0.23 0.26 0.24 0.27 0.28 0.27 0.29 0.27 0.35 0.36 0.31 0.37 0.44 0.41 0.39 0.38 0.38 0.38 0.36 0.35 0.26 0.23 0.22 0.17 0.18 0.11 0.15 0.21 0.24 0.23 0.24 0.26 0.26 0.26
0.97 0.95 0.92 0.89 0.86 0.78 0.65 0.58 0.45 0.36 0.25 0.29 0.28 0.28 0.29 0.31 0.32 0.31 0.31 0.35 0.39 0.42 0.37 0.30 0.28 0.28 0.29 0.32 0.37 0.38 0.38 0.31 0.25 0.22 0.20 0.22 0.24 0.27 0.26 0.24 0.24 0.29 0.30 0.32
1.03 0.95 0.92 0.89 0.90 0.84 0.73 0.67 0.64 0.47 0.32 0.30 0.35 0.31 0.33 0.27 0.28 0.29 0.32 0.41 0.44 0.39 0.29 0.25 0.19 0.18 0.21 0.22 0.28 0.38 0.38 0.36 0.28 0.25 0.21 0.20 0.27 0.33 0.37 0.35 0.24 0.35 0.36 0.37
1.08 1.02 0.99 0.91 0.90 0.87 0.78 0.70 0.72 0.56 0.39 0.41 0.38 0.32 0.31 0.34 0.32 0.29 0.32 0.34 0.34 0.37 0.26 0.22 0.20 0.19 0.24 0.19 0.20 0.23 0.26 0.28 0.24 0.24 0.23 0.26 0.33 0.36 0.39 0.25 0.27 0.38 0.40 0.41
1.11 1.06 1.03 1.01 0.94 0.91 0.81 0.71 0.75 0.60 0.47 0.46 0.48 0.44 0.38 0.37 0.35 0.29 0.34 0.31 0.32 0.30 0.23 0.23 0.23 0.21 0.23 0.22 0.24 0.24 0.22 0.22 0.22 0.25 0.23 0.19 0.36 0.34 0.29 0.34 0.39 0.41 0.42 0.43
1.11 1.09 1.03 1.04 1.01 0.96 0.91 0.70 0.80 0.75 0.56 0.50 0.59 0.56 0.55 0.50 0.47 0.40 0.39 0.34 0.34 0.34 0.28 0.28 0.27 0.24 0.26 0.24 0.19 0.28 0.21 0.26 0.23 0.26 0.24 0.33 0.36 0.35 0.38 0.40 0.39 0.40 0.42 0.44
1.09 1.07 1.03 1.01 1.02 0.99 0.94 0.84 0.80 0.71 0.57 0.53 0.52 0.49 0.58 0.62 0.60 0.60 0.39 0.41 0.43 0.39 0.42 0.35 0.32 0.27 0.31 0.24 0.24 0.26 0.29 0.33 0.28 0.28 0.29 0.32 0.36 0.39 0.41 0.42 0.42 0.44 0.46 0.46
1.09 1.04 1.08 1.02 0.98 0.98 0.95 0.84 0.86 0.74 0.61 0.46 0.47 0.61 0.56 0.64 0.62 0.59 0.56 0.51 0.52 0.49 0.47 0.39 0.36 0.32 0.37 0.30 0.30 0.29 0.31 0.32 0.29 0.28 0.31 0.35 0.37 0.40 0.42 0.44 0.46 0.46 0.46 0.46
0.96 1.06 1.08 1.05 0.98 0.97 0.95 0.90 0.86 0.84 0.62 0.47 0.48 0.57 0.60 0.60 0.59 0.56 0.56 0.53 0.49 0.46 0.41 0.38 0.35 0.39 0.38 0.37 0.36 0.31 0.34 0.29 0.27 0.26 0.36 0.37 0.39 0.44 0.47 0.44 0.44 0.46 0.46 0.47
0.93 0.93 1.04 1.04 0.98 0.99 0.90 0.70 0.84 0.85 0.80 0.57 0.43 0.55 0.53 0.56 0.57 0.54 0.53 0.54 0.52 0.49 0.44 0.41 0.42 0.46 0.41 0.32 0.28 0.34 0.38 0.40 0.41 0.37 0.43 0.43 0.44 0.46 0.47 0.45 0.46 0.47 0.48 0.49
0.76 0.93 1.00 1.04 1.02 0.94 0.78 0.67 0.76 0.83 0.79 0.58 0.45 0.42 0.52 0.56 0.55 0.54 0.52 0.54 0.49 0.47 0.43 0.40 0.39 0.40 0.42 0.35 0.26 0.35 0.39 0.41 0.42 0.45 0.44 0.40 0.43 0.41 0.46 0.46 0.47 0.49 0.48 0.48
0.57 0.75 0.88 0.98 1.01 0.92 0.81 0.86 0.86 0.82 0.67 0.60 0.43 0.39 0.41 0.52 0.44 0.43 0.52 0.46 0.47 0.44 0.41 0.42 0.38 0.40 0.40 0.29 0.34 0.38 0.40 0.41 0.41 0.42 0.43 0.42 0.44 0.45 0.45 0.47 0.46 0.44 0.41 0.42
0.47 0.51 0.69 0.92 0.83 0.72 0.77 0.93 0.90 0.84 0.65 0.48 0.44 0.36 0.33 0.51 0.47 0.48 0.46 0.47 0.36 0.45 0.37 0.37 0.39 0.34 0.28 0.31 0.34 0.35 0.38 0.38 0.38 0.40 0.40 0.40 0.40 0.42 0.42 0.41 0.41 0.38 0.37 0.36
0.45 0.42 0.47 0.50 0.65 0.85 0.89 0.76 0.64 0.62 0.61 0.55 0.42 0.47 0.39 0.47 0.45 0.41 0.40 0.43 0.37 0.31 0.34 0.40 0.31 0.27 0.35 0.36 0.37 0.39 0.38 0.37 0.35 0.32 0.31 0.34 0.35 0.36 0.37 0.37 0.38 0.36 0.33 0.32
0.40 0.34 0.35 0.58 0.74 0.69 0.66 0.53 0.49 0.50 0.42 0.45 0.45 0.44 0.39 0.49 0.41 0.39 0.44 0.38 0.38 0.28 0.30 0.30 0.26 0.22 0.28 0.33 0.34 0.35 0.35 0.34 0.34 0.36 0.37 0.39 0.39 0.37 0.37 0.35 0.34 0.32 0.30 0.31
0.43 0.45 0.51 0.54 0.53 0.49 0.44 0.41 0.44 0.39 0.35 0.44 0.42 0.41 0.45 0.47 0.51 0.43 0.44 0.38 0.37 0.27 0.36 0.29 0.22 0.25 0.30 0.31 0.31 0.32 0.32 0.34 0.35 0.36 0.34 0.34 0.35 0.35 0.34 0.32 0.30 0.31 0.33 0.33
0.48 0.41 0.33 0.31 0.38 0.33 0.32 0.27 0.29 0.31 0.39 0.42 0.41 0.39 0.47 0.50 0.51 0.45 0.43 0.35 0.32 0.38 0.30 0.24 0.24 0.28 0.30 0.31 0.32 0.31 0.33 0.33 0.31 0.30 0.29 0.29 0.28 0.28 0.27 0.28 0.29 0.29 0.28 0.27
0.33 0.31 0.22 0.22 0.22 0.21 0.26 0.27 0.28 0.34 0.38 0.41 0.44 0.42 0.43 0.48 0.45 0.45 0.36 0.39 0.37 0.28 0.23 0.20 0.27 0.28 0.31 0.32 0.33 0.31 0.30 0.29 0.27 0.26 0.27 0.27 0.27 0.27 0.27 0.27 0.27 0.26 0.24 0.23
0.31 0.30 0.21 0.20 0.19 0.24 0.26 0.28 0.32 0.38 0.44 0.43 0.43 0.43 0.43 0.42 0.41 0.41 0.37 0.32 0.27 0.26 0.22 0.27 0.30 0.30 0.33 0.34 0.33 0.33 0.32 0.30 0.28 0.27 0.25 0.25 0.25 0.24 0.24 0.25 0.26 0.25 0.23 0.21
0.34 0.30 0.21 0.21 0.19 0.17 0.21 0.27 0.28 0.37 0.41 0.44 0.43 0.38 0.35 0.36 0.38 0.33 0.31 0.27 0.22 0.24 0.29 0.32 0.33 0.33 0.35 0.35 0.32 0.30 0.30 0.29 0.28 0.28 0.27 0.27 0.27 0.26 0.25 0.23 0.20 0.18 0.17 0.16
0.28 0.25 0.26 0.21 0.21 0.20 0.19 0.25 0.28 0.39 0.37 0.32 0.36 0.31 0.30 0.37 0.33 0.30 0.31 0.23 0.27 0.33 0.34 0.33 0.33 0.34 0.32 0.32 0.32 0.31 0.31 0.30 0.30 0.29 0.27 0.26 0.24 0.21 0.17 0.14 0.14 0.16 0.16 0.17

GFSNW_prec_pwat_156.txt.gz
Precipitable_Water
0.65 0.64 0.61 0.54 0.49 0.55 0.47 0.39 0.27 0.50 0.51 0.27 0.30 0.26 0.31 0.36 0.36 0.39 0.32 0.30 0.27 0.26 0.27 0.24 0.22 0.20 0.26 0.34 0.30 0.21 0.24 0.19 0.15 0.16 0.24 0.27 0.23 0.18 0.17 0.12 0.12 0.14 0.13 0.12
0.68 0.67 0.62 0.58 0.52 0.53 0.43 0.27 0.31 0.47 0.42 0.24 0.26 0.29 0.29 0.33 0.30 0.32 0.32 0.30 0.32 0.32 0.27 0.23 0.26 0.25 0.32 0.34 0.30 0.23 0.23 0.17 0.13 0.14 0.19 0.23 0.19 0.21 0.21 0.19 0.17 0.13 0.11 0.12
0.84 0.81 0.69 0.62 0.55 0.53 0.43 0.28 0.22 0.31 0.36 0.34 0.27 0.26 0.26 0.24 0.32 0.31 0.34 0.31 0.31 0.28 0.25 0.28 0.24 0.25 0.31 0.33 0.32 0.31 0.25 0.18 0.14 0.11 0.13 0.18 0.16 0.18 0.18 0.16 0.12 0.12 0.11 0.11
0.88 0.86 0.82 0.76 0.63 0.52 0.41 0.30 0.25 0.29 0.21 0.27 0.30 0.26 0.23 0.20 0.21 0.29 0.30 0.27 0.27 0.25 0.21 0.20 0.20 0.24 0.25 0.27 0.28 0.26 0.21 0.14 0.15 0.16 0.16 0.17 0.16 0.15 0.17 0.15 0.15 0.12 0.13 0.13
0.87 0.88 0.86 0.82 0.73 0.62 0.39 0.28 0.27 0.31 0.26 0.28 0.26 0.29 0.28 0.25 0.24 0.24 0.22 0.25 0.26 0.25 0.20 0.20 0.19 0.23 0.22 0.20 0.24 0.22 0.23 0.16 0.17 0.13 0.16 0.15 0.12 0.13 0.14 0.14 0.15 0.13 0.12 0.11
0.88 0.89 0.88 0.86 0.78 0.66 0.47 0.42 0.41 0.32 0.27 0.24 0.23 0.24 0.26 0.28 0.30 0.32 0.32 0.30 0.27 0.24 0.26 0.29 0.29 0.28 0.26 0.23 0.18 0.16 0.15 0.13 0.11 0.09 0.13 0.14 0.11 0.13 0.13 0.13 0.17 0.19 0.17 0.21
0.97 0.91 0.89 0.88 0.85 0.73 0.59 0.52 0.42 0.29 0.23 0.25 0.24 0.27 0.28 0.26 0.28 0.26 0.33 0.35 0.30 0.37 0.44 0.42 0.41 0.40 0.39 0.38 0.36 0.35 0.27 0.26 0.25 0.21 0.22 0.16 0.20 0.23 0.25 0.25 0.26 0.28 0.28 0.30
1.02 0.97 0.91 0.88 0.90 0.82 0.67 0.62 0.51 0.39 0.26 0.29 0.28 0.29 0.29 0.31 0.32 0.30 0.30 0.34 0.37 0.41 0.35 0.28 0.25 0.26 0.27 0.30 0.36 0.37 0.36 0.30 0.25 0.22 0.21 0.23 0.25 0.28 0.28 0.28 0.27 0.32 0.33 0.35
1.07 1.02 0.97 0.90 0.90 0.87 0.77 0.70 0.67 0.52 0.37 0.32 0.35 0.32 0.32 0.28 0.28 0.30 0.33 0.40 0.43 0.37 0.28 0.23 0.17 0.15 0.18 0.19 0.23 0.33 0.33 0.31 0.24 0.21 0.17 0.15 0.22 0.29 0.33 0.32 0.23 0.34 0.36 0.36
1.08 1.06 1.02 0.98 0.94 0.90 0.81 0.73 0.75 0.61 0.45 0.46 0.42 0.34 0.32 0.36 0.32 0.28 0.32 0.34 0.34 0.37 0.25 0.20 0.18 0.17 0.22 0.17 0.17 0.20 0.23 0.24 0.20 0.19 0.18 0.19 0.26 0.30 0.33 0.20 0.23 0.33 0.35 0.35
1.12 1.09 1.06 1.04 1.01 0.97 0.88 0.76 0.79 0.64 0.51 0.51 0.52 0.48 0.41 0.39 0.37 0.30 0.36 0.33 0.33 0.30 0.24 0.23 0.23 0.22 0.23 0.22 0.24 0.22 0.21 0.20 0.21 0.22 0.19 0.16 0.32 0.29 0.24 0.29 0.34 0.34 0.35 0.36
1.14 1.12 1.09 1.08 1.03 0.99 0.96 0.77 0.85 0.79 0.60 0.54 0.63 0.61 0.59 0.52 0.48 0.42 0.43 0.37 0.37 0.36 0.29 0.28 0.28 0.24 0.26 0.24 0.19 0.29 0.21 0.25 0.22 0.24 0.22 0.31 0.33 0.32 0.34 0.36 0.35 0.36 0.37 0.41
1.12 1.07 1.09 1.09 1.06 1.03 0.98 0.88 0.85 0.78 0.64 0.59 0.57 0.53 0.62 0.64 0.59 0.60 0.42 0.45 0.46 0.42 0.44 0.36 0.32 0.26 0.30 0.24 0.24 0.26 0.29 0.32 0.26 0.25 0.27 0.28 0.32 0.35 0.37 0.39 0.38 0.42 0.45 0.45
1.04 1.08 1.10 1.08 1.04 1.03 0.99 0.89 0.90 0.79 0.67 0.53 0.54 0.66 0.58 0.65 0.62 0.59 0.57 0.52 0.53 0.51 0.47 0.39 0.35 0.31 0.36 0.29 0.29 0.27 0.30 0.30 0.27 0.26 0.28 0.31 0.34 0.37 0.39 0.42 0.46 0.45 0.45 0.45
0.96 1.00 1.07 1.08 1.03 1.03 1.01 0.95 0.90 0.88 0.68 0.53 0.53 0.61 0.62 0.63 0.61 0.58 0.58 0.55 0.51 0.47 0.41 0.39 0.35 0.38 0.36 0.37 0.35 0.29 0.35 0.30 0.27 0.24 0.32 0.33 0.34 0.40 0.44 0.43 0.42 0.43 0.42 0.43
0.83 0.90 0.97 1.00 1.03 1.02 0.95 0.76 0.88 0.91 0.85 0.62 0.47 0.62 0.59 0.61 0.61 0.57 0.55 0.55 0.52 0.50 0.45 0.43 0.44 0.47 0.41 0.32 0.29 0.32 0.36 0.37 0.36 0.33 0.38 0.38 0.41 0.44 0.44 0.41 0.42 0.43 0.44 0.45
0.64 0.73 0.83 0.91 1.03 0.95 0.78 0.70 0.76 0.89 0.84 0.63 0.50 0.47 0.56 0.59 0.57 0.55 0.53 0.56 0.52 0.50 0.46 0.42 0.42 0.41 0.43 0.35 0.25 0.32 0.35 0.37 0.39 0.41 0.40 0.36 0.39 0.38 0.42 0.41 0.42 0.43 0.43 0.43
0.52 0.61 0.70 0.90 0.93 0.95 0.82 0.88 0.91 0.88 0.73 0.65 0.48 0.45 0.45 0.56 0.46 0.44 0.53 0.47 0.49 0.48 0.45 0.45 0.39 0.41 0.40 0.28 0.32 0.35 0.36 0.38 0.38 0.38 0.40 0.38 0.39 0.40 0.40 0.41 0.41 0.39 0.37 0.37
0.47 0.48 0.53 0.72 0.84 0.74 0.79 0.94 0.91 0.85 0.69 0.53 0.49 0.40 0.36 0.55 0.48 0.49 0.49 0.50 0.39 0.47 0.39 0.40 0.41 0.35 0.27 0.30 0.33 0.34 0.35 0.34 0.33 0.37 0.37 0.35 0.33 0.33 0.35 0.37 0.37 0.35 0.34 0.34
0.46 0.43 0.38 0.40 0.66 0.90 0.88 0.78 0.65 0.64 0.64 0.59 0.46 0.51 0.41 0.47 0.45 0.43 0.43 0.46 0.39 0.33 0.37 0.43 0.34 0.28 0.33 0.36 0.36 0.36 0.35 0.36 0.36 0.30 0.27 0.29 0.30 0.32 0.33 0.34 0.35 0.34 0.32 0.30
0.39 0.36 0.35 0.53 0.71 0.65 0.63 0.52 0.50 0.50 0.42 0.49 0.49 0.48 0.43 0.52 0.40 0.40 0.45 0.40 0.41 0.31 0.33 0.34 0.29 0.24 0.29 0.35 0.34 0.35 0.37 0.36 0.34 0.33 0.33 0.34 0.34 0.34 0.33 0.32 0.32 0.31 0.30 0.29
0.42 0.46 0.51 0.51 0.48 0.45 0.37 0.34 0.42 0.40 0.34 0.45 0.44 0.45 0.47 0.46 0.50 0.43 0.44 0.38 0.40 0.31 0.40 0.32 0.25 0.27 0.33 0.34 0.34 0.35 0.34 0.33 0.34 0.35 0.33 0.32 0.32 0.33 0.33 0.31 0.29 0.28 0.30 0.30
0.45 0.40 0.37 0.31 0.33 0.30 0.29 0.22 0.26 0.29 0.38 0.42 0.44 0.41 0.44 0.45 0.47 0.45 0.44 0.37 0.35 0.42 0.33 0.28 0.27 0.32 0.35 0.36 0.35 0.33 0.34 0.34 0.33 0.32 0.32 0.30 0.29 0.29 0.27 0.27 0.28 0.28 0.26 0.26
0.33 0.29 0.21 0.20 0.19 0.20 0.25 0.27 0.29 0.35 0.37 0.38 0.41 0.39 0.39 0.43 0.40 0.44 0.37 0.40 0.39 0.31 0.26 0.24 0.30 0.34 0.36 0.36 0.36 0.33 0.32 0.32 0.31 0.30 0.29 0.29 0.29 0.28 0.28 0.27 0.26 0.25 0.24 0.24
0.30 0.28 0.22 0.19 0.17 0.21 0.22 0.27 0.31 0.35 0.39 0.37 0.36 0.38 0.39 0.37 0.38 0.41 0.37 0.32 0.29 0.28 0.26 0.30 0.34 0.35 0.36 0.36 0.35 0.33 0.32 0.31 0.30 0.30 0.30 0.28 0.27 0.26 0.25 0.26 0.26 0.25 0.23 0.20
0.33 0.31 0.20 0.21 0.19 0.16 0.18 0.23 0.25 0.33 0.34 0.38 0.39 0.35 0.33 0.32 0.35 0.30 0.30 0.29 0.25 0.27 0.33 0.35 0.36 0.36 0.37 0.37 0.35 0.33 0.33 0.32 0.31 0.31 0.31 0.30 0.28 0.27 0.26 0.25 0.22 0.19 0.17 0.16
0.28 0.22 0.24 0.23 0.21 0.20 0.19 0.21 0.23 0.39 0.37 0.30 0.33 0.27 0.26 0.34 0.29 0.25 0.30 0.26 0.28 0.33 0.36 0.36 0.38 0.37 0.38 0.38 0.35 0.33 0.33 0.32 0.32 0.32 0.31 0.30 0.28 0.26 0.22 0.17 0.17 0.18 0.18 0.18